Regional Weather Roundup
Issued by NWS

Home | Current Version | Previous Version | Text Only | Print | Product List | Glossary On
Versions: 1 2 3 4 5 6 7 8 9 10 11 12 13 14 15 16 17 18 19 20 21 22 23 24 25 26 27 28 29 30 31 32 33 34 35 36 37 38 39 40 41 42 43 44 45 46 47 48 49 50
000
ASUS43 KMPX 202310
RWRMN
WEATHER ROUNDUP FOR MINNESOTA
NATIONAL WEATHER SERVICE TWIN CITIES/CHANHASSEN MN
600 PM CDT SAT SEP 20 2014


NOTE: "FAIR" INDICATES FEW OR NO CLOUDS BELOW 12,000 FEET WITH NO
SIGNIFICANT WEATHER AND/OR OBSTRUCTIONS TO VISIBILITY. N/A MEANS
CURRENT SKY AND/OR WEATHER CONDITIONS ARE NOT AVAILABLE.

MNZ060>063-068>070-210000-
   Twin Cities Metro

CITY           SKY/WX    TMP DP  RH WIND       PRES   REMARKS
TWIN CITIES    HVY RAIN  60  57  89 NW24G37   29.82R VSB 3/4
ST PAUL        RAIN      65  58  78 W37G44    29.81R
CRYSTAL        RAIN      61  55  81 NW15G28   29.81R
BLAINE         CLOUDY    66  59  77 W32G40    29.81R
LAKEVILLE      LGT RAIN  66  59  77 NW17G23   29.78R
EDEN PRAIRIE   LGT RAIN  60  57  89 N17G26    29.79R FOG
SOUTH ST PAUL  RAIN      70  56  61 NW8       29.75S
LAKE ELMO      LGT RAIN  68  59  73 NW6       29.75S
$$
MNZ001>005-007-008-013>017-022>024-027-028-210000-
   Northwest Minnesota

CITY           SKY/WX    TMP DP  RH WIND       PRES   REMARKS
BEMIDJI        RAIN      54  51  90 W23G39    29.75R
HALLOCK        MOSUNNY   61  52  72 N12       29.81R
ROSEAU         LGT RAIN  54  48  82 NW8       29.80R
WARROAD        LGT RAIN  52  48  87 NW7       29.80R
THIEF RVR FALL MOSUNNY   61  48  63 NW28G33   29.80R
CROOKSTON      MOSUNNY   63  52  67 NW17      29.82R
FOSSTON        PTSUNNY   59  50  72 NW12G25   29.81R
DETROIT LAKES  MOSUNNY   61  50  67 NW24G32   29.84S
MOORHEAD       SUNNY     66  52  59 NW14G23   29.85S
PARK RAPIDS    MOSUNNY   59  50  72 NW24G31   29.79R
MAHNOMEN       CLOUDY    60  50  70 NW16G23   29.82S
$$
MNZ006-009>011-018-025>026-210000-
   North Central Minnesota

CITY           SKY/WX    TMP DP  RH WIND       PRES   REMARKS
BAUDETTE       LGT RAIN  53  51  93 NW9       29.74R
FLAG ISLAND    CLOUDY    55  48  76 N14       29.77R
INTL FALLS     PTSUNNY   59  49  69 N5        29.70S
WASKISH        RAIN      54  52  94 NW3       29.73R
BIG FORK       HVY RAIN  55  54  94 CALM      29.70S
LONGVILLE      CLOUDY    55  54  94 W9        29.74S
GRAND RAPIDS   CLOUDY    55  50  82 NW10      29.72R
CRANE LAKE     MOSUNNY   55  52  88 CALM      29.71S
ORR            PTSUNNY   57  48  72 CALM      29.66F
COOK           PTSUNNY   59  50  72 CALM      29.68F
WALKER         CLOUDY    55  50  83 W18G25    29.75R
$$
MNZ012-019>021-037-210000-
   Northeast Minnesota

CITY           SKY/WX    TMP DP  RH WIND       PRES   REMARKS
DULUTH         MOSUNNY   64  50  60 W7        29.69F
ELY            MOSUNNY   55  50  82 CALM      29.71R
HIBBING        PTSUNNY   62  51  67 CALM      29.67F
EVELETH        PTSUNNY   63  48  59 W5        29.70R
DULUTH HARBOR  MOSUNNY   66  54  63 SW7       29.69S
TWO HARBORS    MOSUNNY   57  50  77 E5        29.68R
SILVER BAY     MOSUNNY   59  55  88 CALM      29.67S
GRAND MARAIS     N/A     60  52  74 CALM      29.67R
G MARAIS ARPRT MOCLDY    59  48  67 W7        29.71R
$$
MNZ029>031-032-039>041-046>048-054>057-064-210000-
   West Central Minnesota

CITY           SKY/WX    TMP DP  RH WIND       PRES   REMARKS
FERGUS FALLS   MOSUNNY   63  48  59 NW16G22   29.86R
WHEATON        SUNNY     64  50  59 NW17G25   29.89R
ALEXANDRIA     MOSUNNY   62  52  69 NW23G32   29.85R
ELBOW LAKE     FAIR      63  52  67 NW18G29   29.86R
WADENA         SUNNY     57  48  72 NW22G32   29.81R
GLENWOOD       MOSUNNY   63  54  72 NW18G25   29.85R
APPLETON       SUNNY     64  55  72 NW15G21   29.87R
BENSON         MOSUNNY   64  55  72 N21G26    29.86R
ORTONVILLE     MOSUNNY   66  52  59 NW15      29.89R
MADISON        MOSUNNY   68  59  73 N16G24    29.89R
WILLMAR        FAIR      61  57  88 NW17G28   29.86R
$$
MNZ033>034-036-042>043-049>051-058-059-210000-
   Central Minnesota

CITY           SKY/WX    TMP DP  RH WIND       PRES   REMARKS
ST CLOUD       CLOUDY    63  57  81 NW13      29.78R
SAUK CENTRE    FAIR      61  53  75 NW14G24   29.83R
PAYNESVILLE    PTSUNNY   59  56  89 W10G17    29.83R
AITKIN         CLOUDY    59  54  82 CALM      29.74S
PINE RIVER     RAIN      55  54  94 W9        29.80S
BRAINERD       CLOUDY    56  53  90 W10       29.78R
STAPLES        PTSUNNY   57  50  77 NW24      29.80R
LONG PRAIRIE   FAIR      59  50  72 W20G26    29.82R
LITTLE FALLS   PTSUNNY   59  54  82 W12G18    29.79S
LITCHFIELD     CLOUDY    61  61 100 NW10      29.83R
BUFFALO        LGT RAIN  59  54  84 W3        29.80F
MAPLE LAKE     DRIZZLE   59  57  93 CALM      29.80F
$$
MNZ037-044-045-052-053-210000-
   East Central Minnesota

CITY           SKY/WX    TMP DP  RH WIND       PRES   REMARKS
PRINCETON      CLOUDY    61  55  82 W7        29.77R
MORA           HVY RAIN  55  52  88 W6G12     29.76R
CAMBRIDGE      RAIN      61  52  72 W6G24     29.73S
RUSH CITY      CLOUDY    65  58  79 CALM      29.73F
MOOSE LAKE     TSTM      57  52  82 W10G33    29.73R
HINCKLEY       CLOUDY    63  55  77 W21G39    29.77R
CLOQUET        LGT RAIN  63  52  67 CALM      29.70F
MCGREGOR       CLOUDY    55  54  94 W6        29.75F
$$
MNZ071>073-080-081-089-090-097-098-210000-
   Southwest Minnesota

CITY           SKY/WX    TMP DP  RH WIND       PRES   REMARKS
MONTEVIDEO     MOSUNNY   64  57  77 N15G26    29.88R
GRANITE FALLS  MOSUNNY   62  58  87 NW15G21   29.88R
CANBY          PTSUNNY   66  56  69 NW13G23   29.90R
MARSHALL       PTSUNNY   64  52  63 N22G30    29.87R
REDWOOD FALLS  PTSUNNY   62  59  90 NW12G18   29.84S
OLIVIA         PTSUNNY   61  57  88 NW13G22   29.84R
PIPESTONE      MOSUNNY   70  55  60 N18G29    29.91R
WINDOM         MOSUNNY   70  55  60 N30G46    29.85R
WORTHINGTON    PTSUNNY   79  50  36 W21G32    29.84R
JACKSON        MOSUNNY   79  48  34 W22G32    29.81R
TRACY          PTSUNNY   64  56  73 N17G29    29.88R
SLAYTON        MOSUNNY   67  50  54 N25G32    29.89R
$$
MNZ065>067-074>077-082>085-091>093-210000-
   South Central Minnesota

CITY           SKY/WX    TMP DP  RH WIND       PRES   REMARKS
MANKATO        PTSUNNY  N/A N/A N/A NW31G51   29.82R THUNDER
NEW ULM        PTSUNNY   61  59  94 N10G22    29.83R
ST JAMES       RAIN      63  59  88 N22G33    29.83R
FAIRMONT       PTSUNNY   81  45  28 W18G24    29.78S
GLENCOE        RAIN      59  55  85 NW7       29.80R
FARIBAULT      CLOUDY    70  55  60 W13G20    29.77R
OWATONNA       TSTM      72  57  60 NW14      29.77R
WASECA           N/A     59  54  82 N10G20    29.75F VSB 3/4
ALBERT LEA     SUNNY     77  57  50 SW5       29.74F
$$
MNZ078>079-086>088-094>096-210000-
   Southeast Minnesota

CITY           SKY/WX    TMP DP  RH WIND       PRES   REMARKS
ROCHESTER      SUNNY     72  54  53 W7        29.77F
RED WING       PTSUNNY   73  55  53 CALM      29.73S
STANTON        LGT RAIN  72  57  59 CALM      29.72F
DODGE CENTER   MOSUNNY   73  55  53 CALM      29.74F
WINONA         SUNNY     77  55  47 W5        29.74S
AUSTIN         SUNNY     75  55  50 SW6       29.75F
PRESTON        SUNNY     73  59  61 W12       29.78F
$$
ABBREVIATIONS USED IN REMARKS
   TC - TEMPERATURES IN CELSIUS
  WCI - WIND CHILL INDEX
   HX - HEAT INDEX
  VSB - VISIBILITY
$$


USA.gov is the U.S. government's official web portal to all federal, state and local government web resources and services.